Weather History for Jacksonville Craig, FL

Change the Weather History Date:

Monday, October 7, 2013

  Actual Average Record
Temperature  
Mean Temperature 80 °F -  
Max Temperature 88 °F 79 °F 89 °F (2012)
Min Temperature 73 °F 65 °F 48 °F (2010)
Cooling Degree Days 15    
Growing Degree Days 30 (Base 50)    
Moisture  
Dew Point 72 °F    
Average Humidity 81    
Maximum Humidity 91    
Minimum Humidity 59    
Precipitation  
Precipitation 0.35 in - - ()
Sea Level Pressure  
Sea Level Pressure 29.82 in    
Wind  
Wind Speed 3 mph (SE)    
Max Wind Speed 9 mph    
Max Gust Speed -    
Visibility 9 miles    
Events Rain , Thunderstorm    
Averages and records for this station are not official NWS values.
T = Trace of Precipitation, MM = Missing Value Source: NWS Daily Summary

Daily Weather History Graph

Daily Weather History Graph

Search for Another Location

Airport:

Trip Planner

Search our weather history database for the weather conditions in past years. The results will help you decide how hot, cold, wet, or windy it might be!

Date:

Astronomy

Oct. 07, 2013 Rise Set
Actual Time 7:23 AM EDT 7:03 PM EDT
Civil Twilight 6:59 AM EDT 7:27 PM EDT
Nautical Twilight 6:31 AM EDT 7:55 PM EDT
Astronomical Twilight 6:03 AM EDT 8:23 PM EDT
Moon 9:58 AM EDT (10/7) 9:01 PM EDT (10/7)
Length of Visible Light 12h 28m
Length of Day
11h 40m
Waxing Crescent, 8% of the Moon is Illuminated
Oct 7
Waxing Crescent
Oct 11
First Quarter
Oct 18
Full
Oct 26
Last Quarter
Nov 3
New

Hourly Weather History & Observations

Time (EDT) Temp. Heat Index Dew Point Humidity Pressure Visibility Wind Dir Wind Speed Gust Speed Precip Events Conditions
12:53 AM 77.0 °F - 73.0 °F 88% 29.88 in 10.0 mi SSW 3.5 mph - N/A   Clear
1:53 AM 75.9 °F - 71.1 °F 85% 29.88 in 10.0 mi Calm Calm - N/A   Clear
2:53 AM 75.0 °F - 71.1 °F 87% 29.86 in 10.0 mi Calm Calm - N/A   Clear
3:53 AM 73.9 °F - 70.0 °F 87% 29.84 in 10.0 mi Calm Calm - N/A   Clear
4:53 AM 73.0 °F - 70.0 °F 90% 29.84 in 10.0 mi SE 3.5 mph - N/A   Clear
5:53 AM 73.9 °F - 70.0 °F 87% 29.84 in 10.0 mi Calm Calm - N/A   Clear
6:53 AM 73.0 °F - 70.0 °F 90% 29.84 in 10.0 mi SE 3.5 mph - N/A   Clear
7:53 AM 73.9 °F - 71.1 °F 91% 29.84 in 10.0 mi SSW 3.5 mph - N/A   Clear
8:53 AM 77.0 °F - 72.0 °F 84% 29.86 in 10.0 mi South 3.5 mph - N/A   Clear
9:53 AM 81.0 °F 85.8 °F 73.0 °F 77% 29.87 in 10.0 mi SW 4.6 mph - N/A   Clear
10:53 AM 82.9 °F 88.0 °F 72.0 °F 69% 29.85 in 10.0 mi South 3.5 mph - N/A   Mostly Cloudy
11:53 AM 84.9 °F 90.1 °F 71.1 °F 63% 29.84 in 10.0 mi South 9.2 mph - N/A   Scattered Clouds
12:53 PM 84.9 °F 89.4 °F 70.0 °F 61% 29.82 in 10.0 mi Calm Calm - N/A   Scattered Clouds
1:53 PM 87.1 °F 92.8 °F 71.1 °F 59% 29.80 in 10.0 mi Variable 4.6 mph - N/A   Partly Cloudy
2:53 PM 84.0 °F 90.2 °F 73.0 °F 69% 29.78 in 10.0 mi ENE 8.1 mph - 0.00 in Rain Light Rain
3:20 PM 82.4 °F 88.2 °F 73.4 °F 74% 29.78 in 10.0 mi SE 6.9 mph - 0.00 in Rain , Thunderstorm Light Thunderstorms and Rain
3:29 PM 80.6 °F 86.2 °F 75.2 °F 84% 29.78 in 1.8 mi SSE 8.1 mph - 0.10 in Rain , Thunderstorm Heavy Thunderstorms and Rain
3:53 PM 79.0 °F - 75.0 °F 88% 29.78 in 2.0 mi South 3.5 mph - 0.27 in Rain , Thunderstorm Heavy Thunderstorms and Rain
4:03 PM 78.8 °F - 75.2 °F 89% 29.78 in 8.0 mi Calm Calm - 0.00 in Rain , Thunderstorm Light Thunderstorms and Rain
4:53 PM 79.0 °F - 73.0 °F 82% 29.78 in 10.0 mi East 8.1 mph - 0.00 in   Partly Cloudy
5:15 PM 78.8 °F - 73.4 °F 83% 29.79 in 10.0 mi East 9.2 mph - N/A   Mostly Cloudy
5:53 PM 78.1 °F - 73.0 °F 84% 29.78 in 10.0 mi ENE 6.9 mph - N/A   Mostly Cloudy
6:53 PM 78.1 °F - 73.0 °F 84% 29.79 in 10.0 mi ENE 9.2 mph - N/A   Overcast
7:53 PM 75.9 °F - 70.0 °F 82% 29.81 in 10.0 mi ENE 5.8 mph - N/A   Overcast
8:53 PM 75.0 °F - 70.0 °F 84% 29.81 in 10.0 mi ESE 5.8 mph - 0.00 in   Overcast
9:53 PM 75.9 °F - 72.0 °F 87% 29.84 in 9.0 mi East 5.8 mph - 0.01 in Rain Light Rain
10:53 PM 75.9 °F - 72.0 °F 87% 29.83 in 10.0 mi Calm Calm - 0.07 in   Mostly Cloudy
11:53 PM 75.9 °F - 72.0 °F 87% 29.82 in 10.0 mi NE 3.5 mph - N/A   Mostly Cloudy